Date String (YYYY-MM-DD hh:mm:ss) UTC,Instrument flags,absolute air pressure of the measurement (hPa),sample flow rate (lpm),inlet stack bypass flow (lpm),air temperature of the measurement (°C),ambient temperature measured by the external sensor (°C),aerosol sample conditioner tube jacket temperature (°C),OPC LED temperature (°C),internal box temperature (°C),relative humidity of the measurement (%),span deviation,mass concentration of particles derived from Lorenz-Mie calculation of OPC scattering (μg/m³),mass concentration of particles derived from Lorenz-Mie calculation of OPC scattering (μg/m³),mass concentration of particles derived from Lorenz-Mie calculation of OPC scattering (μg/m³)
DateTimeUTC,F1_M11,P_M11,Q1_M11,Q2_M11,T1_M11,T2_M11,T3_M11,T4_M11,T5_M11,U1_M11,ZSPAN_M11,X2_M11,X0_M11,X1_M11
2024-02-16 01:00:00,SystemResetWarning,0824.5,5.01,000.00,021.3,020.8,000.0,029.8,023.1,19.3,0000.0,0001.28,0004.00,0001.08
2024-02-16 01:01:00,SystemResetWarning,0824.6,5.00,000.00,021.3,020.8,000.0,029.8,023.2,19.4,0000.0,0001.54,0004.40,0001.31
2024-02-16 01:02:00,SystemResetWarning,0824.5,5.00,000.00,021.3,020.8,000.0,029.8,023.2,19.2,0000.0,0001.76,0004.64,0001.51
2024-02-16 01:03:00,SystemResetWarning,0824.5,5.01,000.00,021.3,020.8,000.0,029.8,023.1,19.2,0000.0,0001.89,0004.76,0001.64
2024-02-16 01:04:00,SystemResetWarning,0824.6,5.00,000.00,021.3,020.8,000.0,029.8,023.2,19.2,0000.0,0001.97,0004.94,0001.70
2024-02-16 01:05:00,SystemResetWarning,0824.7,4.99,000.00,021.3,020.8,000.0,029.8,023.2,19.2,0000.0,0002.14,0006.12,0001.83
2024-02-16 01:06:00,SystemResetWarning,0824.7,5.00,000.00,021.3,020.8,000.0,029.8,023.2,19.3,0000.0,0002.52,0006.02,0002.18
2024-02-16 01:07:00,SystemResetWarning,0824.7,5.00,000.00,021.3,020.8,000.0,029.8,023.1,19.3,0000.0,0002.90,0005.65,0002.50
2024-02-16 01:08:00,SystemResetWarning,0824.7,5.00,000.00,021.3,020.8,000.0,029.8,023.1,19.2,0000.0,0003.07,0006.65,0002.65
2024-02-16 01:09:00,SystemResetWarning,0824.7,5.01,000.00,021.3,020.8,000.0,029.8,023.1,19.1,0000.0,0003.19,0007.03,0002.80
2024-02-16 01:10:00,SystemResetWarning,0824.7,5.00,000.00,021.3,020.8,000.0,029.8,023.2,18.9,0000.0,0003.22,0006.74,0002.85
2024-02-16 01:11:00,SystemResetWarning,0824.7,5.00,000.00,021.3,020.8,000.0,029.8,023.2,18.8,0000.0,0003.13,0006.41,0002.72
2024-02-16 01:12:00,SystemResetWarning,0824.7,5.00,000.00,021.3,020.8,000.0,029.8,023.2,18.6,0000.0,0002.91,0006.00,0002.49
2024-02-16 01:13:00,SystemResetWarning,0824.7,5.00,000.00,021.3,020.8,000.0,029.8,023.2,18.2,0000.0,0002.75,0005.99,0002.29
2024-02-16 01:14:00,SystemResetWarning,0824.7,4.99,000.00,021.4,020.8,000.0,029.8,023.2,18.2,0000.0,0002.66,0006.01,0002.16
2024-02-16 01:15:00,SystemResetWarning,0824.7,5.00,000.00,021.4,020.8,000.0,029.8,023.2,18.2,0000.0,0002.61,0006.14,0002.11
2024-02-16 01:16:00,SystemResetWarning,0824.7,5.01,000.00,021.4,020.8,000.0,029.8,023.2,18.0,0000.0,0002.48,0005.21,0001.97
2024-02-16 01:17:00,SystemResetWarning,0824.7,5.00,000.00,021.3,020.8,000.0,029.8,023.2,17.6,0000.0,0002.04,0004.78,0001.56
2024-02-16 01:18:00,SystemResetWarning,0824.8,5.00,000.00,021.3,020.8,000.0,029.8,023.2,17.6,0000.0,0001.55,0004.60,0001.13
2024-02-16 01:19:00,SystemResetWarning,0824.8,5.00,000.00,021.4,020.8,000.0,029.8,023.2,17.2,0000.0,0001.24,0003.59,0000.86
2024-02-16 01:20:00,SystemResetWarning,0824.8,5.00,000.00,021.4,020.9,000.0,029.8,023.2,17.4,0000.0,0000.95,0003.12,0000.60
2024-02-16 01:21:00,SystemResetWarning,0824.8,4.99,000.00,021.4,020.8,000.0,029.8,023.2,17.3,0000.0,0000.75,0003.36,0000.42
2024-02-16 01:22:00,SystemResetWarning,0824.8,4.99,000.00,021.4,020.8,000.0,029.8,023.2,17.2,0000.0,0000.67,0003.37,0000.35
2024-02-16 01:23:00,SystemResetWarning,0824.9,5.01,000.00,021.4,020.8,000.0,029.8,023.2,17.3,0000.0,0000.65,0003.33,0000.34
2024-02-16 01:24:00,SystemResetWarning,0824.9,5.01,000.00,021.4,020.9,000.0,029.8,023.2,17.6,0000.0,0000.58,0003.12,0000.32
2024-02-16 01:25:00,SystemResetWarning,0824.9,5.01,000.00,021.4,020.9,000.0,029.8,023.2,17.7,0000.0,0000.54,0002.95,0000.33
2024-02-16 01:26:00,SystemResetWarning,0824.9,4.99,000.00,021.4,020.9,000.0,029.8,023.2,17.7,0000.0,0000.51,0002.73,0000.33
2024-02-16 01:27:00,SystemResetWarning,0824.9,4.99,000.00,021.4,020.8,000.0,029.8,023.2,17.8,0000.0,0000.54,0003.06,0000.34
2024-02-16 01:28:00,SystemResetWarning,0824.9,5.00,000.00,021.4,020.9,000.0,029.8,023.2,17.5,0000.0,0000.55,0003.33,0000.34
2024-02-16 01:29:00,SystemResetWarning,0824.9,5.01,000.00,021.4,020.9,000.0,029.8,023.2,17.6,0000.0,0000.57,0002.85,0000.35
2024-02-16 01:30:00,SystemResetWarning,0824.9,5.00,000.00,021.4,020.9,000.0,029.8,023.2,17.5,0000.0,0000.56,0002.44,0000.35
2024-02-16 01:31:00,SystemResetWarning,0824.9,5.01,000.00,021.4,020.9,000.0,029.8,023.2,17.4,0000.0,0000.58,0002.72,0000.36
2024-02-16 01:32:00,SystemResetWarning,0824.9,5.00,000.00,021.4,020.8,000.0,029.8,023.2,17.8,0000.0,0000.57,0003.21,0000.35
2024-02-16 01:33:00,SystemResetWarning,0824.9,4.99,000.00,021.4,020.8,000.0,029.8,023.1,18.9,0000.0,0000.58,0002.86,0000.35
2024-02-16 01:34:00,SystemResetWarning,0824.9,5.00,000.00,021.3,020.8,000.0,029.8,023.1,19.0,0000.0,0000.59,0002.93,0000.36
2024-02-16 01:35:00,SystemResetWarning,0824.9,4.99,000.00,021.3,020.8,000.0,029.8,023.1,18.6,0000.0,0000.61,0003.03,0000.36
2024-02-16 01:36:00,SystemResetWarning,0824.9,4.99,000.00,021.3,020.8,000.0,029.8,023.1,18.3,0000.0,0000.61,0003.20,0000.36
2024-02-16 01:37:00,SystemResetWarning,0824.9,4.99,000.00,021.3,020.8,000.0,029.8,023.2,18.4,0000.0,0000.62,0003.28,0000.35
2024-02-16 01:38:00,SystemResetWarning,0824.9,5.00,000.00,021.3,020.8,000.0,029.8,023.2,18.4,0000.0,0000.62,0003.15,0000.35
2024-02-16 01:39:00,SystemResetWarning,0824.9,5.00,000.00,021.3,020.8,000.0,029.8,023.1,18.7,0000.0,0000.59,0002.37,0000.35
2024-02-16 01:40:00,SystemResetWarning,0824.9,5.00,000.00,021.3,020.8,000.0,029.8,023.1,18.9,0000.0,0000.65,0002.52,0000.40
2024-02-16 01:41:00,SystemResetWarning,0824.9,5.01,000.00,021.3,020.7,000.0,029.8,023.0,19.0,0000.0,0001.33,0003.38,0001.00
2024-02-16 01:42:00,SystemResetWarning,0824.9,5.01,000.00,021.3,020.7,000.0,029.8,023.0,18.6,0000.0,0002.00,0003.93,0001.65
2024-02-16 01:43:00,SystemResetWarning,0824.9,5.01,000.00,021.3,020.7,000.0,029.8,023.0,18.1,0000.0,0002.60,0004.00,0002.16
2024-02-16 01:44:00,SystemResetWarning,0824.9,5.00,000.00,021.3,020.7,000.0,029.8,023.0,17.9,0000.0,0003.02,0005.38,0002.52
2024-02-16 01:45:00,SystemResetWarning,0824.9,4.99,000.00,021.3,020.7,000.0,029.8,023.0,18.1,0000.0,0003.29,0006.00,0002.91
2024-02-16 01:46:00,SystemResetWarning,0824.9,4.99,000.00,021.2,020.6,000.0,029.8,022.9,19.0,0000.0,0003.51,0006.60,0003.20
2024-02-16 01:47:00,SystemResetWarning,0824.9,5.00,000.00,021.2,020.6,000.0,029.7,022.9,19.9,0000.0,0003.79,0007.03,0003.45
2024-02-16 01:48:00,SystemResetWarning,0824.9,5.00,000.00,021.2,020.6,000.0,029.7,022.8,20.3,0000.1,0004.12,0007.42,0003.76
2024-02-16 01:49:00,SystemResetWarning,0825.0,5.01,000.00,021.1,020.5,000.0,029.7,022.8,20.5,0001.0,0004.46,0007.93,0004.09
2024-02-16 01:50:00,SystemResetWarning,0825.1,5.01,000.00,021.1,020.5,000.0,029.7,022.8,20.5,0001.3,0004.78,0008.54,0004.38
2024-02-16 01:51:00,SystemResetWarning,0825.1,5.01,000.00,021.1,020.5,000.0,029.7,022.8,20.4,0001.3,0004.95,0008.68,0004.55
2024-02-16 01:52:00,SystemResetWarning,0825.1,5.00,000.00,021.1,020.4,000.0,029.7,022.7,20.5,0000.6,0004.76,0008.76,0004.40
2024-02-16 01:53:00,SystemResetWarning,0825.1,5.01,000.00,021.1,020.4,000.0,029.6,022.7,20.9,0000.0,0004.52,0008.86,0004.19
2024-02-16 01:54:00,SystemResetWarning,0825.1,5.00,000.00,021.0,020.4,000.0,029.6,022.7,20.8,0000.1,0004.50,0008.75,0004.19
2024-02-16 01:55:00,SystemResetWarning,0825.1,4.99,000.00,021.0,020.4,000.0,029.6,022.7,20.6,0001.2,0004.79,0008.80,0004.49
2024-02-16 01:56:00,SystemResetWarning,0825.2,5.00,000.00,021.0,020.4,000.0,029.6,022.7,20.8,0001.6,0005.26,0009.43,0004.93
2024-02-16 01:57:00,SystemResetWarning,0825.2,5.00,000.00,021.0,020.4,000.0,029.6,022.7,20.9,0001.7,0005.62,0009.62,0005.28
2024-02-16 01:58:00,SystemResetWarning,0825.2,5.00,000.00,021.0,020.4,000.0,029.6,022.7,20.9,0001.5,0005.99,0010.09,0005.63
2024-02-16 01:59:00,SystemResetWarning,0825.2,5.00,000.00,021.0,020.4,000.0,029.6,022.8,21.0,0001.6,0006.32,0010.92,0005.90
